timestamp,surface_pressure_avg,surface_temp_avg,battery_voltage,lat,long
2021-03-15 00:09:01+00:00,384.213,1.4,12.73,47.84626,-54.09684
2021-03-15 00:19:01+00:00,388.8163,1.4,12.65,47.84626,-54.09684
2021-03-15 00:29:01+00:00,384.8596,1.49,12.65,47.84626,-54.09684
2021-03-15 00:39:01+00:00,383.3513,1.49,12.65,47.84626,-54.09684
2021-03-15 00:49:01+00:00,386.50800000000004,1.49,12.65,47.84626,-54.09684
2021-03-15 00:59:01+00:00,383.9828,1.5,12.65,47.84626,-54.09684
2021-03-15 01:09:01+00:00,379.9562,1.5,12.65,47.84626,-54.09684
2021-03-15 01:19:01+00:00,380.3396,1.45,12.57,47.84626,-54.09684
2021-03-15 01:29:01+00:00,378.4479,1.4,12.57,47.84626,-54.09684
2021-03-15 01:39:01+00:00,373.7229,1.4,12.57,47.84626,-54.09684
2021-03-15 01:49:01+00:00,370.9012,1.4,12.57,47.84626,-54.09684
2021-03-15 01:59:01+00:00,368.4612,1.4,12.57,47.84626,-54.09684
2021-03-15 02:09:01+00:00,363.903,1.4,12.57,47.84626,-54.09684
2021-03-15 02:19:01+00:00,360.4913,1.4,12.57,47.84626,-54.09684
2021-03-15 02:29:01+00:00,360.1829,1.4,12.57,47.84626,-54.09684
2021-03-15 02:39:01+00:00,355.8096,1.4,12.57,47.84626,-54.09684
2021-03-15 02:49:01+00:00,347.0214,1.47,12.57,47.84626,-54.09684
2021-03-15 02:59:01+00:00,344.9513,1.5,12.57,47.84626,-54.09684
2021-03-15 03:09:01+00:00,345.1896,1.49,12.57,47.84626,-54.09684
2021-03-15 03:19:01+00:00,340.4796,1.5,12.57,47.84626,-54.09684
2021-03-15 03:29:01+00:00,327.7413,1.52,12.57,47.84626,-54.09684
2021-03-15 03:39:01+00:00,316.6496,1.59,12.57,47.84626,-54.09684
2021-03-15 03:49:01+00:00,308.8664,1.57,12.57,47.84626,-54.09684
2021-03-15 03:59:01+00:00,301.3314,1.54,12.57,47.84626,-54.09684
2021-03-15 04:09:01+00:00,289.548,1.5,12.57,47.84626,-54.09684
2021-03-15 04:19:01+00:00,278.1348,1.5,12.57,47.84626,-54.09684
2021-03-15 04:29:01+00:00,269.5147,1.5,12.57,47.84626,-54.09684
2021-03-15 04:39:01+00:00,257.7464,1.5,12.57,47.84626,-54.09684
2021-03-15 04:49:01+00:00,245.3047,1.5,12.57,47.84626,-54.09684
2021-03-15 04:59:01+00:00,239.1281,1.5,12.57,47.84626,-54.09684
2021-03-15 05:09:01+00:00,233.9081,1.5,12.57,47.84626,-54.09684
2021-03-15 05:19:01+00:00,225.7264,1.5,12.49,47.84626,-54.09684
2021-03-15 05:29:01+00:00,220.9731,1.5,12.49,47.84626,-54.09684
2021-03-15 05:39:01+00:00,219.0615,1.5,12.49,47.84626,-54.09684
2021-03-15 05:49:01+00:00,212.9614,1.5,12.49,47.84626,-54.09684
2021-03-15 05:59:01+00:00,208.0198,1.5,12.49,47.84626,-54.09684
2021-03-15 06:09:01+00:00,208.4048,1.5,12.49,47.84626,-54.09684
2021-03-15 06:19:01+00:00,207.9365,1.5,12.49,47.84626,-54.09684
2021-03-15 06:29:01+00:00,203.7731,1.5,12.49,47.84626,-54.09684
2021-03-15 06:39:01+00:00,202.5031,1.5,12.49,47.84626,-54.09684
2021-03-15 06:49:01+00:00,203.3515,1.5,12.49,47.84626,-54.09684
2021-03-15 06:59:01+00:00,200.9781,1.5,12.49,47.84626,-54.09684
2021-03-15 07:09:01+00:00,201.1764,1.5,12.49,47.84626,-54.09684
2021-03-15 07:19:01+00:00,207.0031,1.52,12.49,47.84626,-54.09684
2021-03-15 07:29:01+00:00,210.8631,1.5,12.49,47.84626,-54.09684
2021-03-15 07:39:01+00:00,211.1464,1.5,12.49,47.84626,-54.09684
2021-03-15 07:49:01+00:00,214.8647,1.5,12.49,47.84626,-54.09684
2021-03-15 07:59:01+00:00,222.3464,1.5,12.49,47.84626,-54.09684
2021-03-15 08:09:01+00:00,226.7981,1.5,12.49,47.84626,-54.09684
2021-03-15 08:19:01+00:00,229.9531,1.5,12.49,47.84626,-54.09684
2021-03-15 08:29:01+00:00,234.1848,1.5,12.49,47.84626,-54.09684
2021-03-15 08:39:01+00:00,239.0764,1.5,12.49,47.84626,-54.09684
2021-03-15 08:49:01+00:00,244.6114,1.5,12.49,47.84626,-54.09684
2021-03-15 08:59:01+00:00,250.7931,1.5,12.49,47.84626,-54.09684
2021-03-15 09:09:01+00:00,255.6064,1.5,12.49,47.84626,-54.09684
2021-03-15 09:19:01+00:00,260.5547,1.5,12.49,47.84626,-54.09684
2021-03-15 09:29:01+00:00,269.5464,1.5,12.49,47.84626,-54.09684
2021-03-15 09:39:01+00:00,277.6147,1.5,12.49,47.84626,-54.09684
2021-03-15 09:49:01+00:00,278.2931,1.51,12.49,47.84626,-54.09684
2021-03-15 09:59:01+00:00,277.7248,1.5,12.49,47.84626,-54.09684
2021-03-15 10:09:01+00:00,284.8047,1.5,12.49,47.84626,-54.09684
2021-03-15 10:19:01+00:00,293.3846,1.5,12.49,47.84626,-54.09684
2021-03-15 10:29:01+00:00,296.718,1.43,12.49,47.84626,-54.09684
2021-03-15 10:39:01+00:00,296.9747,1.47,12.49,47.84626,-54.09684
2021-03-15 10:49:01+00:00,304.1197,1.5,12.49,47.84626,-54.09684
2021-03-15 10:59:01+00:00,314.6846,1.48,12.49,47.84626,-54.09684
2021-03-15 11:09:01+00:00,319.89799999999997,1.44,12.49,47.84626,-54.09684
2021-03-15 11:19:01+00:00,321.1263,1.47,12.57,47.84626,-54.09684
2021-03-15 11:29:01+00:00,331.2629,1.46,12.57,47.84626,-54.09684
2021-03-15 11:39:01+00:00,343.848,1.4,12.57,47.84626,-54.09684
2021-03-15 11:49:01+00:00,348.2163,1.45,12.57,47.84626,-54.09684
2021-03-15 11:59:01+00:00,351.6813,1.48,12.57,47.84626,-54.09684
2021-03-15 12:09:01+00:00,362.5679,1.49,12.57,47.84626,-54.09684
2021-03-15 12:19:01+00:00,367.548,1.5,14.64,47.84626,-54.09684
2021-03-15 12:29:01+00:00,366.6063,1.5,14.64,47.84626,-54.09684
2021-03-15 12:39:01+00:00,371.1763,1.5,14.64,47.84626,-54.09684
2021-03-15 12:49:01+00:00,374.5513,1.5,14.64,47.84626,-54.09684
2021-03-15 12:59:01+00:00,372.4146,1.4,14.64,47.84626,-54.09684
2021-03-15 13:09:01+00:00,372.1962,1.4,14.64,47.84626,-54.09684
2021-03-15 13:19:01+00:00,374.6111,1.4,14.8,47.84626,-54.09684
2021-03-15 13:29:01+00:00,381.2047,1.4,14.8,47.84626,-54.09684
2021-03-15 13:39:01+00:00,380.7697,1.39,14.8,47.84626,-54.09684
2021-03-15 13:49:01+00:00,380.3379,1.4,14.8,47.84626,-54.09684
2021-03-15 13:59:01+00:00,378.3047,1.4,14.8,47.84626,-54.09684
2021-03-15 14:09:01+00:00,375.6696,1.4,14.8,47.84626,-54.09684
2021-03-15 14:19:01+00:00,372.4279,1.4,14.72,47.84626,-54.09684
2021-03-15 14:29:01+00:00,367.1597,1.4,14.72,47.84626,-54.09684
2021-03-15 14:39:01+00:00,364.9429,1.4,14.72,47.84626,-54.09684
2021-03-15 14:49:01+00:00,358.403,1.4,14.72,47.84626,-54.09684
2021-03-15 14:59:01+00:00,350.9796,1.46,14.72,47.84626,-54.09684
2021-03-15 15:09:01+00:00,351.8879,1.43,14.72,47.84626,-54.09684
2021-03-15 15:19:01+00:00,350.6946,1.4,14.56,47.84626,-54.09684
2021-03-15 15:29:01+00:00,344.0096,1.4,14.56,47.84626,-54.09684
2021-03-15 15:39:01+00:00,332.8896,1.48,14.56,47.84626,-54.09684
2021-03-15 15:49:01+00:00,327.8079,1.49,14.56,47.84626,-54.09684
2021-03-15 15:59:01+00:00,328.1447,1.5,14.56,47.84626,-54.09684
2021-03-15 16:09:01+00:00,315.488,1.5,14.56,47.84626,-54.09684
2021-03-15 16:19:01+00:00,301.8864,1.5,14.64,47.84626,-54.09684
2021-03-15 16:29:01+00:00,297.8846,1.5,14.64,47.84626,-54.09684
2021-03-15 16:39:01+00:00,292.7931,1.5,14.64,47.84626,-54.09684
2021-03-15 16:49:01+00:00,275.0098,1.55,14.64,47.84626,-54.09684
2021-03-15 16:59:01+00:00,258.9798,1.6,14.64,47.84626,-54.09684
2021-03-15 17:09:01+00:00,254.9014,1.63,14.64,47.84626,-54.09684
2021-03-15 17:19:01+00:00,246.0931,1.7,14.4,47.84626,-54.09684
2021-03-15 17:29:01+00:00,232.0231,1.84,14.4,47.84626,-54.09684
2021-03-15 17:39:01+00:00,225.7398,1.9,14.4,47.84626,-54.09684
2021-03-15 17:49:01+00:00,226.1431,2.0,14.4,47.84626,-54.09684
2021-03-15 17:59:01+00:00,218.0597,2.0,14.4,47.84626,-54.09684
2021-03-15 18:09:01+00:00,210.5831,2.0,14.4,47.84626,-54.09684
2021-03-15 18:19:01+00:00,207.6515,2.05,14.32,47.84626,-54.09684
2021-03-15 18:29:01+00:00,202.1465,2.05,14.32,47.84626,-54.09684
2021-03-15 18:39:01+00:00,198.7415,2.0,14.32,47.84626,-54.09684
2021-03-15 18:49:01+00:00,203.4814,2.0,14.32,47.84626,-54.09684
2021-03-15 18:59:01+00:00,202.7781,1.9,14.32,47.84626,-54.09684
2021-03-15 19:09:01+00:00,197.0648,1.9,14.32,47.84626,-54.09684
2021-03-15 19:19:01+00:00,203.8765,1.9,14.08,47.84626,-54.09684
2021-03-15 19:29:01+00:00,212.4798,1.9,14.08,47.84626,-54.09684
2021-03-15 19:39:01+00:00,212.9048,1.9,14.08,47.84626,-54.09684
2021-03-15 19:49:01+00:00,215.9814,1.9,14.08,47.84626,-54.09684
2021-03-15 19:59:01+00:00,224.7698,1.8,14.08,47.84626,-54.09684
2021-03-15 20:09:01+00:00,227.1864,1.8,14.08,47.84626,-54.09684
2021-03-15 20:19:01+00:00,230.2948,1.82,13.92,47.84626,-54.09684
2021-03-15 20:29:01+00:00,237.6314,1.86,13.92,47.84626,-54.09684
2021-03-15 20:39:01+00:00,246.5564,1.89,13.92,47.84626,-54.09684
2021-03-15 20:49:01+00:00,252.1048,1.9,13.92,47.84626,-54.09684
2021-03-15 20:59:01+00:00,257.0664,1.9,13.92,47.84626,-54.09684
2021-03-15 21:09:01+00:00,261.7381,1.9,13.92,47.84626,-54.09684
2021-03-15 21:19:01+00:00,266.9614,1.9,13.68,47.84626,-54.09684
2021-03-15 21:29:01+00:00,272.8314,1.9,13.68,47.84626,-54.09684
2021-03-15 21:39:01+00:00,277.8947,1.9,13.68,47.84626,-54.09684
2021-03-15 21:49:01+00:00,284.0064,1.89,13.68,47.84626,-54.09684
2021-03-15 21:59:01+00:00,287.5514,1.87,13.68,47.84626,-54.09684
2021-03-15 22:09:01+00:00,295.3847,1.85,13.68,47.84626,-54.09684
2021-03-15 22:19:01+00:00,302.188,1.86,13.29,47.84626,-54.09684
2021-03-15 22:29:01+00:00,303.9464,1.87,13.29,47.84626,-54.09684
2021-03-15 22:39:01+00:00,305.2047,1.9,13.29,47.84626,-54.09684
2021-03-15 22:49:01+00:00,317.0363,1.9,13.29,47.84626,-54.09684
2021-03-15 22:59:01+00:00,326.3147,1.9,13.29,47.84626,-54.09684
2021-03-15 23:09:01+00:00,320.8464,1.9,13.29,47.84626,-54.09684
2021-03-15 23:19:01+00:00,322.7363,1.9,12.89,47.84626,-54.09684
2021-03-15 23:29:01+00:00,335.1913,1.9,12.89,47.84626,-54.09684
2021-03-15 23:39:01+00:00,343.2263,1.8,12.89,47.84626,-54.09684
2021-03-15 23:49:01+00:00,339.3179,1.89,12.89,47.84626,-54.09684
2021-03-15 23:59:01+00:00,347.2047,1.9,12.89,47.84626,-54.09684
